Wind_Speed
14 15 16 16 17 17 18 17 18 19 19 19 18 18 18 19 18 19 18 9 6 6 13 10 5 8 10 10 8 7 5 3 6 6 4 13 5 10 7 10 11 23 4 18 26
15 16 17 18 18 18 18 19 19 20 20 20 19 18 18 19 21 15 1 5 5 9 14 16 10 8 7 7 7 4 4 10 7 7 5 13 13 18 6 12 6 14 9 25 28
17 17 18 19 19 19 19 20 20 20 20 19 19 19 17 17 17 3 2 3 2 12 11 11 10 9 6 6 7 5 6 5 8 15 5 17 12 17 11 5 19 23 26 29 32
18 18 19 19 19 20 20 20 20 21 21 20 19 17 14 12 1 1 3 4 1 11 14 10 8 7 4 4 5 4 8 9 6 14 9 13 20 9 17 9 24 24 28 32 36
18 19 20 20 20 20 20 20 20 21 21 19 17 15 11 8 8 6 6 4 1 7 13 10 10 6 5 4 5 3 3 12 14 13 19 18 15 8 15 12 22 24 32 36 38
20 21 21 21 21 21 21 21 20 20 19 18 15 12 8 5 3 2 2 0 1 5 10 11 9 6 4 3 4 9 5 6 8 7 10 11 5 11 12 17 24 30 34 36 40
21 22 22 22 22 22 21 21 20 18 16 14 11 10 11 14 6 3 4 2 1 2 4 9 10 3 0 1 1 3 2 3 4 9 5 15 2 7 15 23 31 33 36 35 36
22 22 23 23 23 22 20 19 17 14 12 9 7 8 9 8 6 11 7 5 4 2 3 2 8 4 1 2 4 1 4 2 1 4 8 9 11 6 23 29 26 26 22 23 29
23 23 23 23 23 21 16 16 10 9 8 7 6 5 9 2 3 7 10 6 1 3 5 3 1 1 1 4 5 6 1 2 2 4 5 3 3 7 27 25 18 18 18 22 25
24 24 24 23 23 16 14 9 11 7 4 7 7 5 5 2 6 8 11 13 6 2 3 4 4 3 4 5 2 1 3 2 1 7 6 6 5 5 26 21 23 22 24 28 29
25 25 25 22 21 8 11 8 8 3 14 10 18 17 25 12 8 4 4 12 9 1 2 2 4 3 6 5 3 2 2 2 3 7 5 13 10 11 19 22 23 27 29 34 39
25 25 24 21 16 5 8 5 9 10 12 16 12 21 22 24 10 8 4 6 4 3 2 5 2 8 3 5 3 3 2 5 3 5 8 4 13 4 18 24 36 36 37 34 32
26 24 23 20 12 6 5 8 12 14 4 11 8 7 6 3 7 13 8 7 4 4 3 6 6 5 3 2 2 4 4 5 6 1 2 5 3 3 6 10 16 26 34 28 37
26 24 22 18 6 10 0 8 14 10 4 7 6 4 6 1 2 7 13 7 2 8 7 5 4 4 3 4 7 4 7 6 4 5 4 5 4 6 4 8 9 20 25 28 33
25 24 20 15 11 6 5 9 8 2 4 12 7 5 9 2 7 5 12 9 8 5 6 8 5 3 3 5 7 9 3 2 3 4 3 3 3 4 8 13 18 26 28 30 32
23 22 15 11 10 8 9 6 1 5 2 7 6 7 9 5 9 2 5 2 5 5 2 6 2 5 6 5 6 3 3 5 4 3 1 6 6 4 11 25 24 19 29 32 34
20 18 6 11 13 13 10 2 5 5 5 8 5 8 4 7 8 8 2 4 4 2 4 4 5 4 4 1 2 4 6 4 4 3 5 2 4 8 17 10 22 24 28 34 40
19 11 3 7 11 13 9 5 4 1 3 4 5 8 5 8 6 9 4 3 4 3 2 2 12 4 1 7 6 3 7 5 4 3 6 3 6 6 4 14 13 14 27 32 37
18 3 2 4 9 13 3 5 3 0 5 5 7 6 6 7 2 7 6 4 3 2 2 1 5 3 5 2 4 2 2 5 5 3 1 3 5 4 4 4 5 18 30 35 39
18 3 3 3 8 10 5 4 3 3 5 3 3 3 5 6 8 8 3 5 8 5 4 3 3 3 5 2 3 6 6 2 2 2 4 4 4 5 5 9 6 11 24 32 37
11 1 4 2 8 5 4 3 3 3 8 3 4 3 3 3 3 4 6 2 6 7 7 4 2 6 1 2 5 3 2 2 4 5 5 3 6 9 13 15 17 14 24 35 41
10 2 8 1 4 3 1 3 5 5 10 4 4 3 2 2 2 4 5 2 18 9 4 3 2 3 6 5 4 2 5 5 4 7 3 4 6 5 11 11 18 22 29 35 38
13 6 7 0 2 2 4 3 3 6 4 4 3 4 4 3 3 2 4 4 16 9 5 6 2 3 9 5 5 5 2 5 3 1 5 5 6 3 3 7 22 16 24 30 34
7 4 7 10 6 3 3 3 5 7 4 4 3 5 4 2 1 4 4 4 23 6 14 2 2 6 6 6 2 6 5 6 6 1 6 7 6 5 7 9 10 20 27 32 35
6 2 2 4 5 3 1 1 3 4 5 10 3 4 1 2 2 1 3 6 10 5 6 3 4 3 5 6 5 6 11 8 2 7 7 21 8 10 14 14 22 25 25 28 31
4 3 3 2 4 1 3 1 1 5 1 2 3 6 1 2 3 3 4 2 6 6 4 4 4 4 5 10 10 13 14 11 5 5 9 15 11 9 6 7 14 27 29 31 35
2 2 2 3 3 2 1 1 1 4 1 9 5 3 4 1 17 21 22 19 16 6 2 2 3 1 5 3 5 8 10 14 5 4 4 9 9 8 7 8 21 30 36 39 39
Wind_Direction
339 337 332 331 326 326 326 325 325 325 326 327 324 318 315 315 313 302 293 305 254 212 195 191 190 177 184 189 181 160 74 166 207 169 219 154 135 163 158 160 142 173 175 181 172
341 338 332 330 326 326 325 323 323 322 322 324 323 319 316 319 317 305 54 2 221 201 200 216 196 180 176 177 174 114 129 202 202 201 188 172 147 164 164 168 165 180 218 180 176
342 339 333 330 326 325 323 322 320 317 316 318 320 319 315 322 325 122 50 17 248 195 179 179 177 179 163 164 177 157 170 200 230 211 216 156 156 168 158 210 200 180 165 175 181
339 335 330 328 325 324 321 318 315 313 312 315 319 317 312 316 344 137 73 24 12 193 181 174 173 170 132 165 172 136 214 188 215 225 168 160 174 181 196 205 206 203 187 181 185
340 335 331 327 324 322 319 316 312 309 309 312 314 310 305 290 266 267 273 307 326 200 192 182 170 161 162 174 139 183 196 203 231 215 208 157 175 182 213 207 191 193 185 186 187
344 339 335 331 325 321 318 316 310 305 306 308 307 302 284 268 284 287 211 139 236 221 201 191 184 186 126 171 164 195 210 238 227 210 182 141 154 171 208 204 189 188 184 187 191
344 341 338 334 330 326 323 316 309 304 301 301 300 292 274 271 267 180 151 163 266 291 230 201 155 117 308 343 220 224 203 113 45 162 156 131 37 223 183 179 171 174 183 187 191
346 342 340 338 334 332 327 316 315 308 305 302 302 293 264 279 276 213 217 217 271 272 183 91 205 290 231 342 25 55 55 51 57 119 166 161 226 204 176 170 168 171 166 176 190
347 344 343 341 339 337 329 325 327 320 317 308 292 291 274 337 13 210 210 231 217 208 176 82 180 241 64 77 19 4 128 58 42 141 164 192 224 170 176 172 151 148 155 176 191
348 346 347 344 341 342 338 326 324 325 329 306 288 292 254 114 337 340 223 241 224 182 149 188 180 79 39 65 210 193 53 2 234 201 189 193 262 192 180 153 145 153 171 188 193
347 346 349 347 344 351 355 346 351 347 316 275 283 275 287 293 331 111 210 226 219 225 69 43 80 190 224 190 164 146 194 229 255 187 135 213 218 201 165 156 151 164 179 194 198
345 343 349 347 347 352 355 48 25 324 303 313 300 267 272 271 290 271 197 167 134 189 73 16 291 227 172 150 157 179 232 258 298 223 180 186 245 153 181 187 179 182 192 195 186
342 340 348 347 350 337 336 16 351 339 293 301 322 311 353 208 209 266 186 180 131 137 169 172 222 111 143 216 221 208 195 217 196 176 359 110 331 153 193 193 204 204 208 194 199
341 339 345 348 358 336 163 343 333 326 46 305 349 14 346 333 254 276 219 180 113 195 159 232 265 214 172 235 154 278 206 231 198 142 228 182 267 227 201 210 205 219 209 199 197
340 336 343 349 343 339 318 331 325 325 44 319 342 348 345 281 306 0 205 188 180 171 124 238 187 155 188 215 174 229 192 240 273 175 114 197 104 255 161 220 228 219 210 209 200
340 336 346 11 14 351 324 329 11 41 345 342 346 346 8 14 337 339 139 185 223 149 212 242 246 176 219 193 194 272 36 47 58 100 90 232 160 223 184 216 226 222 211 203 206
343 340 22 44 24 9 354 25 42 95 335 343 331 340 349 336 349 13 49 135 155 122 272 325 257 261 211 236 333 81 55 347 346 3 218 38 104 236 216 237 218 210 200 194 208
346 346 112 39 16 2 359 51 76 281 342 332 318 330 61 357 345 340 22 46 32 70 104 215 304 191 268 188 186 164 142 155 245 240 254 83 208 250 276 236 220 215 198 192 204
349 7 131 12 358 357 3 59 167 110 297 315 330 40 358 351 15 3 9 20 49 46 134 135 281 271 231 174 106 327 210 190 130 2 53 236 291 320 331 315 150 170 175 188 197
347 108 91 4 353 357 70 178 197 218 313 345 46 45 37 347 6 3 11 344 342 355 328 215 292 278 313 148 222 167 168 289 1 207 254 290 284 232 246 235 193 181 184 187 194
355 118 358 2 352 14 111 204 276 311 9 21 19 8 40 25 301 301 347 73 4 317 346 16 143 290 23 54 263 342 282 76 140 146 185 223 257 219 208 200 203 201 194 191 199
1 31 5 292 38 46 89 324 327 354 5 23 96 86 70 20 307 336 347 253 355 317 358 344 142 278 226 286 265 139 62 65 20 290 211 169 270 244 220 199 189 198 199 204 206
347 314 353 179 106 1 329 335 2 10 0 16 70 61 46 24 351 7 311 310 359 348 355 334 317 354 335 343 17 83 140 104 212 359 227 165 260 291 180 168 207 198 193 201 204
354 356 13 57 62 88 35 357 323 19 50 13 84 62 40 22 349 303 328 318 333 310 311 319 246 188 211 223 179 297 283 113 115 222 322 257 262 258 229 197 193 200 204 203 202
7 48 32 326 12 33 37 349 334 354 10 21 57 58 294 245 293 277 333 334 304 313 350 54 277 242 248 249 230 237 278 292 244 262 229 271 246 245 215 199 201 204 196 192 193
8 19 356 315 309 339 6 41 75 322 316 12 54 328 299 182 74 304 15 253 254 320 353 10 280 314 272 273 252 266 272 253 208 310 272 250 259 238 135 175 176 195 194 194 199
6 353 359 345 342 78 220 117 58 0 27 81 12 346 338 76 319 294 271 250 245 275 261 240 221 272 267 305 324 284 251 233 229 172 249 255 248 162 189 188 198 198 204 208 208
Height
1522 1520 1518 1516 1514 1511 1508 1506 1504 1502 1499 1498 1496 1494 1493 1490 1488 1485 1483 1484 1484 1486 1489 1492 1494 1496 1498 1499 1500 1501 1517 1527 1519 1521 1508 1508 1511 1514 1515 1515 1517 1521 1523 1525 1529
1521 1518 1516 1514 1512 1508 1506 1504 1501 1499 1497 1496 1494 1492 1490 1488 1484 1481 1482 1481 1481 1484 1486 1489 1493 1495 1497 1497 1499 1500 1515 1514 1503 1501 1501 1505 1506 1511 1515 1515 1517 1520 1522 1525 1528
1519 1517 1515 1512 1509 1506 1504 1502 1499 1497 1496 1494 1493 1490 1489 1486 1483 1481 1481 1480 1481 1482 1484 1488 1492 1494 1495 1496 1497 1499 1509 1500 1496 1495 1497 1502 1507 1510 1512 1516 1511 1514 1519 1522 1526
1518 1516 1514 1510 1507 1504 1502 1499 1497 1495 1493 1492 1491 1488 1487 1487 1488 1480 1480 1480 1480 1481 1483 1486 1490 1492 1494 1496 1495 1499 1497 1496 1495 1495 1497 1501 1504 1509 1510 1506 1510 1514 1518 1522 1525
1517 1515 1512 1508 1505 1502 1499 1497 1494 1492 1491 1489 1488 1486 1486 1485 1480 1479 1479 1480 1480 1481 1483 1485 1488 1491 1493 1494 1495 1497 1495 1496 1492 1493 1493 1497 1501 1506 1507 1507 1508 1513 1518 1521 1526
1517 1514 1510 1506 1503 1500 1497 1494 1491 1489 1487 1487 1486 1484 1485 1484 1478 1478 1479 1479 1480 1481 1482 1484 1486 1489 1490 1492 1494 1493 1493 1493 1493 1494 1496 1498 1503 1505 1505 1506 1508 1512 1516 1520 1524
1517 1513 1509 1505 1501 1497 1494 1490 1487 1486 1484 1483 1482 1481 1482 1477 1477 1478 1478 1479 1480 1481 1482 1483 1486 1488 1489 1490 1491 1491 1493 1494 1496 1496 1498 1500 1509 1503 1501 1505 1507 1512 1516 1522 1527
1516 1512 1507 1503 1498 1494 1491 1487 1484 1483 1482 1481 1480 1480 1476 1474 1475 1477 1478 1478 1480 1481 1482 1484 1486 1487 1488 1489 1490 1491 1495 1501 1498 1497 1499 1500 1507 1500 1502 1504 1508 1515 1523 1528 1530
1515 1510 1506 1501 1496 1492 1488 1485 1483 1481 1480 1479 1479 1479 1473 1473 1473 1475 1476 1478 1479 1481 1483 1484 1486 1487 1488 1494 1504 1501 1507 1500 1500 1496 1498 1503 1503 1498 1503 1507 1514 1521 1523 1528 1531
1514 1509 1504 1499 1495 1491 1488 1485 1483 1481 1480 1479 1478 1481 1474 1474 1473 1474 1475 1477 1480 1481 1483 1485 1486 1490 1496 1502 1520 1506 1505 1501 1498 1496 1498 1503 1502 1498 1500 1508 1512 1516 1520 1524 1523
1511 1506 1502 1498 1494 1491 1489 1485 1486 1484 1481 1479 1477 1476 1472 1473 1473 1473 1474 1475 1478 1481 1485 1485 1492 1499 1495 1494 1495 1497 1500 1502 1498 1492 1497 1497 1494 1496 1502 1506 1508 1509 1513 1513 1508
1509 1504 1501 1497 1493 1491 1490 1489 1491 1493 1481 1472 1470 1469 1468 1470 1473 1471 1474 1476 1478 1484 1483 1491 1498 1487 1487 1491 1494 1497 1500 1502 1493 1490 1495 1496 1496 1498 1499 1497 1495 1497 1500 1505 1514
1508 1503 1499 1495 1492 1492 1491 1491 1490 1488 1486 1472 1470 1468 1467 1467 1469 1468 1473 1474 1477 1484 1486 1494 1487 1483 1484 1488 1493 1497 1500 1498 1497 1490 1492 1498 1503 1500 1498 1498 1501 1500 1498 1503 1504
1506 1502 1497 1494 1494 1491 1491 1491 1489 1488 1496 1479 1471 1470 1468 1467 1467 1465 1469 1473 1477 1483 1487 1488 1480 1481 1485 1488 1490 1498 1485 1486 1490 1499 1512 1492 1518 1500 1499 1499 1500 1499 1499 1501 1506
1505 1500 1496 1492 1491 1490 1491 1490 1488 1488 1512 1478 1474 1472 1470 1470 1469 1465 1466 1470 1476 1478 1484 1484 1479 1480 1483 1483 1482 1486 1476 1480 1482 1494 1495 1495 1507 1502 1499 1500 1492 1488 1493 1496 1501
1503 1498 1494 1492 1491 1490 1489 1488 1489 1503 1505 1485 1478 1477 1473 1470 1467 1466 1467 1470 1471 1476 1478 1479 1476 1476 1475 1475 1475 1472 1477 1485 1494 1500 1515 1491 1497 1506 1496 1481 1475 1483 1487 1489 1494
1501 1497 1494 1493 1492 1490 1488 1488 1505 1515 1492 1495 1489 1482 1482 1478 1472 1470 1469 1473 1481 1489 1491 1480 1476 1471 1470 1476 1474 1477 1493 1518 1514 1517 1515 1491 1498 1485 1474 1467 1462 1465 1475 1481 1487
1499 1496 1495 1494 1492 1490 1488 1492 1505 1502 1499 1491 1489 1485 1487 1483 1479 1476 1476 1482 1475 1480 1492 1494 1493 1472 1466 1470 1476 1478 1488 1515 1517 1522 1508 1491 1498 1477 1466 1461 1464 1467 1473 1480 1484
1496 1494 1494 1494 1492 1490 1489 1513 1509 1503 1498 1496 1492 1495 1494 1489 1488 1482 1482 1483 1479 1477 1487 1494 1491 1469 1466 1463 1468 1477 1489 1480 1501 1505 1509 1498 1481 1468 1466 1463 1462 1464 1468 1471 1476
1495 1494 1494 1494 1492 1491 1494 1507 1503 1498 1496 1494 1500 1495 1502 1501 1496 1491 1485 1490 1488 1482 1480 1481 1494 1471 1465 1463 1465 1470 1473 1490 1502 1505 1508 1500 1490 1482 1471 1465 1463 1464 1463 1467 1472
1496 1495 1495 1494 1493 1493 1505 1505 1500 1497 1497 1497 1498 1500 1503 1505 1503 1496 1497 1491 1489 1484 1479 1482 1486 1482 1469 1473 1476 1476 1479 1482 1490 1498 1506 1508 1498 1458 1452 1449 1452 1453 1458 1461 1465
1498 1498 1496 1495 1497 1502 1505 1504 1501 1498 1497 1496 1497 1500 1503 1504 1503 1501 1501 1496 1492 1488 1488 1483 1489 1493 1480 1468 1466 1469 1482 1490 1504 1497 1498 1499 1489 1441 1439 1442 1444 1446 1451 1457 1462
1501 1499 1498 1495 1504 1507 1504 1503 1502 1501 1500 1499 1501 1501 1503 1504 1506 1501 1499 1493 1491 1491 1492 1487 1493 1502 1491 1479 1471 1477 1478 1487 1494 1502 1494 1494 1482 1440 1440 1440 1442 1445 1449 1456 1461
1505 1505 1500 1499 1504 1506 1508 1508 1504 1502 1503 1502 1502 1502 1504 1505 1504 1504 1502 1495 1493 1491 1490 1487 1491 1492 1501 1489 1483 1486 1476 1478 1490 1508 1497 1487 1456 1444 1439 1439 1442 1444 1446 1451 1457
1509 1511 1512 1513 1509 1509 1510 1509 1508 1507 1504 1504 1505 1507 1507 1510 1507 1506 1503 1502 1496 1490 1490 1491 1496 1487 1483 1482 1480 1479 1477 1474 1477 1479 1491 1465 1465 1439 1433 1431 1431 1439 1444 1449 1453
1512 1513 1513 1512 1512 1509 1511 1513 1510 1508 1507 1507 1509 1508 1506 1508 1511 1512 1509 1509 1504 1493 1493 1493 1497 1488 1484 1476 1474 1472 1467 1467 1462 1464 1462 1458 1456 1429 1428 1431 1431 1433 1439 1443 1446
1512 1513 1512 1515 1513 1513 1512 1512 1512 1511 1508 1508 1510 1509 1507 1508 1508 1505 1503 1502 1500 1499 1496 1497 1496 1495 1491 1475 1474 1477 1460 1455 1452 1449 1457 1459 1441 1421 1427 1427 1426 1427 1431 1433 1437